logo tempoitalia

Diretta Meteo Urum-Qi-Diwopu, Cinagiovedì 13 agosto ore 22:00

Mappa
Sereno 26 °C Sereno 24 Ore: T.min 23 T.max 33
Ponente Nord Km/h 7.2 Punto di rugiada: 7 °C Umidità: 29% Visibilità: 10 Km
Il sole sorge alle: 05:10 Il sole tramonta alle: 19:19
13 Agosto 2020 22:00 tempo osservato: Sereno Sereno 26 29 1006 vento: Nord N 7.2
13 Agosto 2020 21:30 tempo osservato: Sereno Sereno 26 29 1006 vento: Nord N 7.2
13 Agosto 2020 21:00 tempo osservato: Sereno Sereno 27 26 1006 vento: Nord S/SO 14.4
13 Agosto 2020 20:30 tempo osservato: Sereno Sereno 29 21 1006 vento: Nord SO 21.6
13 Agosto 2020 20:00 tempo osservato: Sereno Sereno 29 20 1006 vento: Nord SO 14.4
13 Agosto 2020 19:30 tempo osservato: Poco Nuvoloso Poco Nuvoloso 29 18 1005 vento: Nord O 18
13 Agosto 2020 19:00 tempo osservato: Poco Nuvoloso Poco Nuvoloso 30 19 1005 vento: Nord O/NO 21.6
13 Agosto 2020 18:30 tempo osservato: Poco Nuvoloso Poco Nuvoloso 31 16 1005 vento: Nord NO 14.4
13 Agosto 2020 18:00 tempo osservato: Poco Nuvoloso Poco Nuvoloso 31 16 1005 vento: Nord NO 18
13 Agosto 2020 17:30 tempo osservato: Poco Nuvoloso Poco Nuvoloso 32 14 1004 vento: Nord N 10.8
13 Agosto 2020 17:00 tempo osservato: Poco Nuvoloso Poco Nuvoloso 33 14 1004 vento: Nord NO 10.8
13 Agosto 2020 16:30 tempo osservato: Poco Nuvoloso Poco Nuvoloso 33 14 1004 vento: Nord N/NE 14.4
13 Agosto 2020 16:00 tempo osservato: Poco Nuvoloso Poco Nuvoloso 33 14 1004 vento: Nord N/NE 14.4
13 Agosto 2020 15:30 tempo osservato: Poco Nuvoloso Poco Nuvoloso 33 16 1004 vento: Nord N/NO 21.6
13 Agosto 2020 15:00 tempo osservato: Poco Nuvoloso Poco Nuvoloso 33 15 1005 vento: Nord N 21.6
13 Agosto 2020 14:30 tempo osservato: Poco Nuvoloso Poco Nuvoloso 33 19 1005 vento: Nord N 18
13 Agosto 2020 14:00 tempo osservato: Poco Nuvoloso Poco Nuvoloso 32 22 1005 vento: Nord N 18
13 Agosto 2020 13:30 tempo osservato: Poco Nuvoloso Poco Nuvoloso 32 24 1006 vento: Nord N 10.8
13 Agosto 2020 13:00 tempo osservato: Poco Nuvoloso Poco Nuvoloso 33 24 1006 vento: Nord NE 18
13 Agosto 2020 12:30 tempo osservato: Poco Nuvoloso Poco Nuvoloso 32 25 1006 vento: Nord N/NE 10.8
13 Agosto 2020 12:00 tempo osservato: Sereno Sereno 32 25 1006 vento: Nord NE 14.4
13 Agosto 2020 11:30 tempo osservato: Sereno Sereno 31 29 1007 vento: Nord N/NE 10.8
13 Agosto 2020 11:00 tempo osservato: Sereno Sereno 31 25 1007 vento: Nord N 7.2
13 Agosto 2020 10:30 tempo osservato: Sereno Sereno 31 29 1007 vento: Nord N 7.2
13 Agosto 2020 10:00 tempo osservato: Sereno Sereno 30 28 1007 vento: Nord N 3.6
13 Agosto 2020 09:30 tempo osservato: Sereno Sereno 30 28 1008 vento: Nord N 3.6
13 Agosto 2020 09:00 tempo osservato: Sereno Sereno 30 30 1008 vento: Nord N 7.2
13 Agosto 2020 08:30 tempo osservato: Sereno Sereno 28 34 1008 vento: Nord N 3.6
13 Agosto 2020 08:00 tempo osservato: Sereno Sereno 27 36 1009 vento: Nord N 7.2
13 Agosto 2020 07:30 tempo osservato: Sereno Sereno 27 36 1009 vento: Nord S 10.8
13 Agosto 2020 07:00 tempo osservato: Sereno Sereno 26 39 1009 vento: Nord S 14.4
13 Agosto 2020 06:30 tempo osservato: Sereno Sereno 25 41 1008 vento: Nord S 10.8
13 Agosto 2020 06:00 tempo osservato: Sereno Sereno 24 43 1008 vento: Nord S 14.4
13 Agosto 2020 05:30 tempo osservato: Sereno Sereno 23 46 1008 vento: Nord N 7.2
13 Agosto 2020 05:00 tempo osservato: Sereno Sereno 23 46 1008 vento: Nord S/SE 10.8
13 Agosto 2020 04:30 tempo osservato: Sereno Sereno 24 43 1007 vento: Nord S/SE 10.8
13 Agosto 2020 04:00 tempo osservato: Sereno Sereno 24 43 1007 vento: Nord S/SE 10.8
13 Agosto 2020 03:30 tempo osservato: Sereno Sereno 24 43 1007 vento: Nord S/SE 10.8
13 Agosto 2020 03:00 tempo osservato: Sereno Sereno 24 47 1007 vento: Nord S/SE 10.8
13 Agosto 2020 02:30 tempo osservato: Sereno Sereno 24 47 1008 vento: Nord N 7.2
13 Agosto 2020 02:00 tempo osservato: Sereno Sereno 24 43 1008 vento: Nord E 10.8
13 Agosto 2020 01:30 tempo osservato: Sereno Sereno 25 41 1008 vento: Nord N 3.6
13 Agosto 2020 01:00 tempo osservato: Sereno Sereno 25 41 1008 vento: Nord N 7.2
13 Agosto 2020 00:30 tempo osservato: Sereno Sereno 26 39 1008 vento: Nord N 7.2
13 Agosto 2020 00:00 tempo osservato: Sereno Sereno 26 39 1008 vento: Nord N 3.6